AE5HO Weather Reports


Display with metric or nautical units.
time (UTC)temp
F
wind
direction
speed
MPH
gust
MPH
rain 1hr
in
rain 24hr
in
rain mn
in
humidity
%
barometer
mb
20240523101822 71 180 0.0 0.0 0.00 0.00 0.00 99 1008.7
20240523101306 71 180 0.0 0.0 0.00 0.00 0.00 99 1008.6
20240523100805 71 180 0.0 1.0 0.00 0.00 0.00 99 1008.5
20240523100303 71 180 0.0 0.0 0.00 0.00 0.00 99 1008.5
20240523095802 71 188 0.0 0.0 0.00 0.00 0.00 99 1008.5
20240523095259 71 173 0.0 1.0 0.00 0.00 0.00 99 1008.4
20240523094758 70 180 0.0 0.0 0.00 0.00 0.00 99 1008.4
20240523094257 70 180 0.0 2.0 0.00 0.00 0.00 99 1008.1
20240523093757 70 180 0.0 1.0 0.00 0.00 0.00 99 1008.2
20240523093256 70 187 0.0 1.0 0.00 0.00 0.00 99 1008.1
20240523092756 70 188 0.0 0.0 0.00 0.00 0.00 99 1008.1
20240523092255 70 172 0.0 0.0 0.00 0.00 0.00 99 1008.2
20240523091754 70 188 0.0 0.0 0.00 0.00 0.00 99 1008.4
20240523091253 70 101 0.0 2.0 0.00 0.00 0.00 99 1008.4
20240523090752 70 165 0.0 1.0 0.00 0.00 0.00 99 1008.4
20240523090251 70 180 0.0 0.0 0.00 0.00 0.00 99 1008.4
20240523085748 70 188 0.0 2.0 0.00 0.00 0.00 99 1008.5
20240523085248 70 114 0.0 0.0 0.00 0.00 0.00 99 1008.5
20240523084245 70 172 0.0 0.0 0.00 0.00 0.00 99 1008.6
20240523083744 70 165 0.0 0.0 0.00 0.00 0.00 99 1008.6
20240523083239 70 165 0.0 0.0 0.00 0.00 0.00 99 1008.5
20240523082740 70 195 0.0 1.0 0.00 0.00 0.00 99 1008.5
20240523082239 70 180 0.0 0.0 0.00 0.00 0.00 99 1008.4
20240523081237 70 180 0.0 1.0 0.00 0.00 0.00 99 1008.3
20240523080737 70 180 0.0 0.0 0.00 0.00 0.00 99 1008.2
20240523080237 70 180 0.0 0.0 0.00 0.00 0.00 99 1008.3
20240523075736 71 180 0.0 0.0 0.00 0.00 0.00 99 1008.6
20240523075235 71 165 0.0 1.0 0.00 0.00 0.00 99 1008.6
20240523074733 71 180 0.0 0.0 0.00 0.00 0.00 99 1008.6
20240523074232 71 188 0.0 0.0 0.00 0.00 0.00 99 1008.7
20240523073729 71 180 0.0 0.0 0.00 0.00 0.00 99 1008.7
20240523073228 71 172 0.0 0.0 0.00 0.00 0.00 99 1009.0
20240523072727 71 174 0.0 1.0 0.00 0.00 0.00 99 1008.9
20240523072226 71 188 0.0 0.0 0.00 0.00 0.00 99 1009.4
20240523071725 71 188 0.0 0.0 0.00 0.00 0.00 99 1009.3
20240523070723 71 187 0.0 0.0 0.00 0.00 0.00 99 1009.2
20240523070222 71 180 0.0 0.0 0.00 0.00 0.00 99 1009.5
20240523065722 71 188 0.0 0.0 0.00 0.00 0.00 99 1009.5
20240523065221 71 188 0.0 0.0 0.00 0.00 0.00 99 1009.5
20240523064720 71 180 0.0 1.0 0.00 0.00 0.00 99 1009.4
20240523064219 71 180 0.0 0.0 0.00 0.00 0.00 99 1009.7
20240523063717 71 188 0.0 0.0 0.00 0.00 0.00 99 1009.8
20240523063216 71 254 0.0 0.0 0.00 0.00 0.00 99 1010.2
20240523062714 71 254 0.0 0.0 0.00 0.00 0.00 99 1010.3
20240523062213 71 180 0.0 1.0 0.00 0.00 0.00 99 1010.4
20240523061712 71 249 0.0 2.0 0.00 0.00 0.00 99 1010.3
20240523061210 71 188 0.0 0.0 0.00 0.00 0.00 99 1010.1
20240523060710 71 180 0.0 1.0 0.00 0.00 0.00 99 1010.5
20240523060208 71 194 0.0 1.0 0.00 0.00 0.00 99 1010.3
20240523055706 71 203 0.0 0.0 0.00 0.00 0.00 99 1010.3
20240523055204 71 180 0.0 0.0 0.00 0.00 0.00 99 1010.1
20240523054703 71 180 0.0 2.0 0.00 0.00 0.00 99 1010.5
20240523054202 71 117 0.0 2.0 0.00 0.00 0.00 99 1010.4
20240523053701 71 187 0.0 0.0 0.00 0.00 0.00 99 1009.9
20240523053159 71 120 0.0 2.0 0.00 0.00 0.00 99 1010.0
20240523052658 71 180 0.0 1.0 0.00 0.00 0.00 99 1010.0
20240523052158 71 173 0.0 1.0 0.00 0.00 0.00 99 1010.1
20240523051657 71 174 1.0 1.0 0.00 0.00 0.00 99 1010.0
20240523051155 71 187 0.0 2.0 0.00 0.00 0.00 99 1010.0
20240523050654 71 186 1.0 2.0 0.00 0.00 0.00 99 1009.8
20240523050152 71 180 2.0 2.0 0.00 1.94 1.94 99 1010.2
20240523045650 71 180 0.0 2.0 0.00 1.94 1.94 99 1009.8
20240523045148 71 180 0.0 1.0 0.00 1.94 1.94 99 1009.9
20240523044646 71 180 0.0 2.0 0.00 1.94 1.94 99 1010.1
20240523044144 71 180 0.0 1.0 0.00 1.94 1.94 99 1010.2
20240523043643 71 185 0.0 1.0 0.00 1.94 1.94 99 1010.3
20240523043142 71 90 0.0 2.0 0.00 1.94 1.94 99 1010.0
20240523042641 71 180 0.0 1.0 0.00 1.94 1.94 99 1010.1
20240523042140 71 195 0.0 2.0 0.00 1.94 1.94 99 1009.8
20240523041638 71 180 0.0 1.0 0.00 1.94 1.94 99 1009.6
20240523041137 71 187 0.0 1.0 0.00 1.94 1.94 99 1009.8
20240523040635 71 180 0.0 1.0 0.00 1.94 1.94 99 1009.7
20240523040132 71 192 1.0 2.0 0.00 1.94 1.94 99 1009.4
20240523035631 71 186 0.0 1.0 0.00 1.94 1.94 99 1009.6
20240523035130 71 188 0.0 1.0 0.00 1.94 1.94 99 1009.6
20240523034629 71 180 0.0 1.0 0.00 1.94 1.94 99 1009.3
20240523034127 71 180 0.0 0.0 0.00 1.94 1.94 99 1009.6
20240523033627 71 188 0.0 0.0 0.00 1.94 1.94 99 1009.5
20240523033126 71 188 0.0 1.0 0.00 1.94 1.94 99 1009.2
20240523032624 71 180 0.0 1.0 0.00 1.94 1.94 99 1009.1
20240523032123 71 200 0.0 1.0 0.00 1.94 1.94 99 1009.1
20240523031621 71 180 1.0 1.0 0.00 1.94 1.94 99 1009.1
20240523031119 71 188 0.0 1.0 0.00 1.94 1.94 99 1009.3
20240523030618 71 188 0.0 1.0 0.00 1.94 1.94 99 1009.4
20240523030117 71 194 0.0 2.0 0.00 1.94 1.94 99 1008.7
20240523025616 71 180 0.0 2.0 0.00 1.94 1.94 99 1008.7
20240523025115 71 172 0.0 2.0 0.00 1.94 1.94 99 1008.4
20240523024614 71 180 0.0 2.0 0.00 1.94 1.94 99 1008.5
20240523024112 71 195 0.0 1.0 0.00 1.94 1.94 99 1008.2
20240523023611 71 196 0.0 2.0 0.00 1.94 1.94 99 1007.6
20240523023110 71 172 0.0 0.0 0.00 1.94 1.94 99 1008.0
20240523022608 71 188 0.0 1.0 0.00 1.94 1.94 99 1008.1
20240523022107 71 180 0.0 2.0 0.00 1.94 1.94 99 1008.2
20240523021605 71 180 0.0 1.0 0.00 1.94 1.94 99 1008.2
20240523021105 71 188 0.0 1.0 0.00 1.94 1.94 99 1007.6
20240523020604 71 203 1.0 2.0 0.00 1.94 1.94 99 1007.9
20240523020102 71 195 0.0 1.0 0.00 1.94 1.94 99 1007.9
20240523015601 71 188 0.0 1.0 0.00 1.94 1.94 99 1008.2
20240523015100 71 188 0.0 1.0 0.00 1.94 1.94 99 1007.9
20240523014559 71 188 0.0 1.0 0.00 1.94 1.94 99 1007.6
20240523014057 71 195 0.0 1.0 0.00 1.94 1.94 99 1007.9
20240523013557 71 191 2.0 2.0 0.00 1.94 1.94 99 1007.6
20240523013056 71 195 0.0 1.0 0.00 1.94 1.94 99 1007.7
20240523012554 71 188 0.0 2.0 0.00 1.94 1.94 99 1007.7
20240523012054 71 189 0.0 2.0 0.00 1.94 1.94 99 1007.3
20240523011551 71 180 0.0 1.0 0.00 1.94 1.94 99 1007.3
20240523011051 71 188 0.0 2.0 0.00 1.94 1.94 99 1007.0
20240523010549 71 195 0.0 2.0 0.00 1.94 1.94 99 1007.5
20240523010049 71 203 0.0 1.0 0.00 1.94 1.94 99 1007.4
20240523005548 71 209 0.0 1.0 0.00 1.94 1.94 99 1007.4
20240523005047 71 180 0.0 2.0 0.00 1.94 1.94 99 1006.9
20240523004545 71 180 2.0 2.0 0.00 1.94 1.94 99 1007.1
20240523004045 71 180 1.0 2.0 0.00 1.94 1.94 99 1007.2
20240523003544 71 180 0.0 2.0 0.00 1.94 1.94 99 1006.9
20240523003043 71 180 0.0 2.0 0.00 1.94 1.94 99 1006.6
20240523002539 71 173 0.0 2.0 0.02 1.94 1.94 99 1006.9
20240523002039 71 180 0.0 3.0 0.02 1.94 1.94 99 1006.6
20240523001536 71 180 1.0 3.0 0.04 1.94 1.94 99 1006.5
20240523001035 71 246 2.0 2.0 0.28 1.94 1.94 99 1006.4
20240523000533 71 180 2.0 2.0 0.35 1.93 1.93 99 1006.9
20240523000031 72 166 0.0 0.0 0.07 1.88 1.88 99 1007.6
20240522235530 72 180 1.0 1.0 0.00 1.87 1.87 99 1008.5
20240522235029 72 190 2.0 2.0 0.00 1.87 1.87 99 1008.4
20240522234525 72 188 0.0 2.0 0.00 1.87 1.87 99 1007.7
20240522234024 72 180 0.0 2.0 0.00 1.87 1.87 99 1007.9
20240522233523 72 188 0.0 1.0 0.00 1.87 1.87 99 1008.6
20240522233021 72 187 0.0 2.0 0.00 1.87 1.87 99 1008.7
20240522232521 72 180 0.0 1.0 0.00 1.87 1.87 99 1008.6
20240522232020 72 180 0.0 1.0 0.00 1.87 1.87 99 1008.3
20240522231519 72 180 0.0 1.0 0.00 1.87 1.87 99 1008.0
20240522231018 72 188 0.0 2.0 0.00 1.87 1.87 99 1008.1
20240522230516 72 173 0.0 1.0 0.00 1.87 1.87 99 1008.7
20240522230015 72 195 0.0 1.0 0.00 1.87 1.87 99 1008.7
20240522225515 72 188 0.0 1.0 0.00 1.87 1.87 99 1008.7
20240522225014 72 180 0.0 1.0 0.00 1.87 1.87 99 1008.6
20240522224512 72 180 0.0 2.0 0.00 1.87 1.87 99 1008.1
20240522224012 72 220 0.0 2.0 0.00 1.87 1.87 99 1007.5
20240522223512 72 180 0.0 1.0 0.00 1.87 1.87 99 1007.5
20240522223010 72 249 0.0 3.0 0.00 1.87 1.87 99 1006.9
20240522222509 72 106 0.0 1.0 0.00 1.87 1.87 99 1007.9
20240522222008 72 187 0.0 1.0 0.00 1.87 1.87 99 1008.4
20240522221507 72 180 0.0 2.0 0.00 1.87 1.87 99 1008.3
20240522221006 71 175 0.0 2.0 0.00 1.87 1.87 98 1008.0
20240522220505 71 194 0.0 2.0 0.00 1.87 1.87 98 1007.2
20240522220004 71 160 1.0 2.0 0.00 1.87 1.87 98 1007.7
20240522215503 71 177 0.0 2.0 0.00 1.87 1.87 98 1008.1
20240522215001 71 180 0.0 1.0 0.00 1.87 1.87 98 1008.4
20240522214500 71 166 0.0 1.0 0.00 1.87 1.87 98 1008.3
20240522214000 71 258 0.0 2.0 0.00 1.87 1.87 98 1007.9
20240522213457 72 154 0.0 2.0 0.00 1.87 1.87 98 1007.6
20240522212957 72 162 0.0 2.0 0.00 1.87 1.87 98 1006.7
20240522212456 72 196 2.0 2.0 0.00 1.87 1.87 98 1006.9
20240522211955 72 109 0.0 2.0 0.00 1.87 1.87 98 1006.3
20240522211455 72 180 0.0 4.0 0.00 1.87 1.87 98 1005.0
20240522210953 72 180 1.0 2.0 0.00 1.87 1.87 98 1007.4
20240522210452 72 172 0.0 2.0 0.00 1.87 1.87 98 1009.0
20240522205951 72 90 0.0 1.0 0.00 1.87 1.87 98 1009.1
20240522205450 72 180 0.0 1.0 0.00 1.87 1.87 98 1009.4
20240522204949 72 18 0.0 2.0 0.00 1.87 1.87 98 1009.7
20240522204445 72 174 0.0 3.0 0.00 1.87 1.87 98 1008.9
20240522203944 72 77 1.0 3.0 0.00 1.87 1.87 98 1008.8
20240522203443 72 75 1.0 2.0 0.00 1.87 1.87 98 1009.1
20240522202941 72 23 0.0 2.0 0.00 1.87 1.87 98 1009.0
20240522202440 72 77 0.0 1.0 0.00 1.87 1.87 98 1009.1
20240522201940 72 90 0.0 1.0 0.00 1.87 1.87 98 1008.9
20240522201438 72 180 0.0 1.0 0.02 1.87 1.87 98 1008.8
20240522200937 73 270 0.0 2.0 0.02 1.87 1.87 98 1008.5
20240522200436 72 172 0.0 0.0 0.09 1.87 1.87 98 1008.7
20240522195936 72 187 0.0 1.0 0.11 1.86 1.86 98 1008.9
20240522195435 72 172 0.0 0.0 0.16 1.85 1.85 98 1008.7
20240522194934 71 180 0.0 1.0 0.80 1.84 1.84 98 1008.6
20240522194432 71 154 0.0 1.0 1.44 1.80 1.80 97 1008.6
20240522193931 71 0 0.0 2.0 1.84 1.62 1.62 97 1008.6
20240522193430 71 152 2.0 5.0 2.66 1.51 1.51 97 1008.3
20240522192928 71 231 2.0 4.0 3.21 1.27 1.27 97 1008.1
20240522192427 72 36 0.0 5.0 2.24 1.03 1.03 97 1008.4
20240522191926 71 190 3.0 3.0 1.51 0.70 0.70 96 1008.2
20240522191424 72 194 0.0 3.0 1.77 0.64 0.64 96 1008.3
20240522190923 74 180 3.0 3.0 0.78 0.37 0.37 96 1008.7
20240522190422 75 281 0.0 2.0 0.66 0.33 0.33 95 1008.1
20240522185921 75 81 0.0 3.0 0.07 0.23 0.23 96 1008.8
20240522185419 76 270 0.0 2.0 0.02 0.22 0.22 95 1009.0
20240522184918 77 168 1.0 2.0 0.02 0.22 0.22 95 1008.6
20240522184417 78 239 2.0 2.0 0.00 0.21 0.21 95 1008.7
20240522183916 78 29 0.0 1.0 0.00 0.21 0.21 95 1008.9
20240522183414 78 239 0.0 3.0 0.00 0.21 0.21 95 1009.0
20240522182913 78 240 0.0 2.0 0.00 0.21 0.21 94 1009.2
20240522182413 78 114 0.0 0.0 0.33 0.21 0.21 94 1008.8
20240522181911 78 90 0.0 1.0 0.78 0.20 0.20 93 1008.6
20240522181410 79 261 0.0 0.0 0.56 0.14 0.14 92 1009.2
20240522180909 79 249 0.0 2.0 0.30 0.07 0.07 90 1009.4
20240522180408 80 180 0.0 3.0 0.26 0.04 0.04 89 1009.7
20240522175909 81 270 0.0 0.0 0.09 0.01 0.01 87 1008.8
20240522175407 81 249 1.0 3.0 0.00 0.00 0.00 84 1008.9
20240522174906 82 99 1.0 1.0 0.00 0.00 0.00 83 1008.7
20240522174405 82 353 0.0 0.0 0.00 0.00 0.00 82 1007.7
20240522173904 82 353 0.0 0.0 0.00 0.00 0.00 81 1006.7
20240522173403 82 90 0.0 2.0 0.00 0.00 0.00 80 1007.7
20240522172901 82 354 1.0 3.0 0.00 0.00 0.00 80 1008.2
20240522172401 83 71 2.0 3.0 0.00 0.00 0.00 79 1008.6
20240522171900 83 99 0.0 4.0 0.00 0.00 0.00 80 1008.8
20240522171359 83 325 0.0 3.0 0.00 0.00 0.00 80 1009.1
20240522170859 83 97 0.0 4.0 0.00 0.00 0.00 80 1009.2
20240522170357 83 215 0.0 2.0 0.00 0.00 0.00 79 1009.4
20240522165855 84 292 2.0 2.0 0.00 0.00 0.00 78 1009.3
20240522165354 85 263 0.0 3.0 0.00 0.00 0.00 77 1008.6
20240522164853 84 261 0.0 4.0 0.00 0.00 0.00 78 1008.7
20240522164351 84 270 0.0 0.0 0.00 0.00 0.00 79 1008.3
20240522163851 83 261 0.0 1.0 0.00 0.00 0.00 80 1008.6
20240522163351 83 252 0.0 3.0 0.00 0.00 0.00 79 1008.9
20240522162851 83 264 2.0 4.0 0.00 0.00 0.00 79 1009.0
20240522162350 83 85 2.0 5.0 0.00 0.00 0.00 79 1009.1
20240522161849 83 105 0.0 3.0 0.00 0.00 0.00 80 1009.4
20240522161347 83 278 0.0 4.0 0.00 0.00 0.00 80 1009.5
20240522160848 83 102 0.0 3.0 0.00 0.00 0.00 80 1009.4
20240522160347 83 262 2.0 4.0 0.00 0.00 0.00 81 1009.4
20240522155845 83 260 0.0 2.0 0.00 0.00 0.00 81 1009.3
20240522155344 83 106 1.0 3.0 0.00 0.00 0.00 81 1009.2
20240522154843 83 300 1.0 3.0 0.00 0.00 0.00 80 1009.1
20240522154342 83 243 1.0 5.0 0.00 0.00 0.00 80 1009.1
20240522153841 83 310 3.0 3.0 0.00 0.00 0.00 80 1009.0
20240522153339 83 279 0.0 4.0 0.00 0.00 0.00 80 1009.0
20240522152838 83 196 2.0 3.0 0.00 0.00 0.00 80 1008.9
20240522152338 84 275 2.0 5.0 0.00 0.00 0.00 80 1009.1
20240522151838 84 258 3.0 3.0 0.00 0.00 0.00 80 1008.9
20240522151337 83 285 2.0 4.0 0.00 0.00 0.00 81 1009.2
20240522150837 83 98 3.0 3.0 0.00 0.00 0.00 81 1009.2
20240522150336 83 264 0.0 3.0 0.00 0.00 0.00 82 1009.1
20240522145835 82 90 0.0 3.0 0.00 0.00 0.00 82 1009.1
20240522145334 82 296 6.0 6.0 0.00 0.00 0.00 83 1009.1
20240522144833 82 203 2.0 3.0 0.00 0.00 0.00 83 1009.1
20240522144331 82 248 2.0 4.0 0.00 0.00 0.00 83 1009.1
20240522143829 82 106 2.0 2.0 0.00 0.00 0.00 83 1009.2
20240522143328 81 345 1.0 4.0 0.00 0.00 0.00 84 1009.1
20240522142826 82 198 0.0 2.0 0.00 0.00 0.00 84 1009.2
20240522142325 81 90 2.0 3.0 0.00 0.00 0.00 84 1009.1
20240522141823 81 276 0.0 3.0 0.00 0.00 0.00 85 1009.2
20240522141322 81 270 0.0 4.0 0.00 0.00 0.00 85 1009.3
20240522140820 81 78 0.0 3.0 0.00 0.00 0.00 85 1009.3
20240522140319 81 297 2.0 3.0 0.00 0.00 0.00 84 1009.3
20240522135817 81 329 3.0 3.0 0.00 0.00 0.00 84 1009.4
20240522135317 81 249 1.0 4.0 0.00 0.00 0.00 84 1009.1
20240522134815 81 251 2.0 3.0 0.00 0.00 0.00 84 1009.2
20240522134314 81 63 0.0 5.0 0.00 0.00 0.00 85 1009.1
20240522133812 80 148 0.0 3.0 0.00 0.00 0.00 85 1009.1
20240522133311 80 209 1.0 5.0 0.00 0.00 0.00 85 1009.2
20240522132810 80 0 0.0 4.0 0.00 0.00 0.00 86 1009.2
20240522132309 80 90 2.0 4.0 0.00 0.00 0.00 86 1009.1
20240522131807 80 100 0.0 4.0 0.00 0.00 0.00 86 1009.3
20240522131306 80 107 2.0 4.0 0.00 0.00 0.00 86 1009.3
20240522130805 79 356 2.0 3.0 0.00 0.00 0.00 87 1009.2
20240522130304 79 37 0.0 3.0 0.00 0.00 0.00 87 1009.5
20240522125803 79 206 1.0 3.0 0.00 0.00 0.00 87 1009.3
20240522125301 79 172 0.0 3.0 0.00 0.00 0.00 87 1009.5
20240522124759 79 100 2.0 3.0 0.00 0.00 0.00 87 1009.1
20240522124257 79 248 3.0 3.0 0.00 0.00 0.00 87 1009.1
20240522123756 79 247 0.0 3.0 0.00 0.00 0.00 87 1009.2
20240522123256 79 340 0.0 2.0 0.00 0.00 0.00 87 1009.2
20240522122755 79 99 5.0 5.0 0.00 0.00 0.00 87 1009.2
20240522122254 79 140 2.0 2.0 0.00 0.00 0.00 87 1009.2
20240522121752 78 180 0.0 3.0 0.00 0.00 0.00 87 1009.1
20240522121251 78 187 1.0 2.0 0.00 0.00 0.00 88 1009.2
20240522120749 78 270 0.0 3.0 0.00 0.00 0.00 88 1009.3
20240522120248 78 172 0.0 3.0 0.00 0.00 0.00 88 1009.2
20240522115747 78 120 0.0 2.0 0.00 0.00 0.00 88 1009.0
20240522115245 78 215 0.0 3.0 0.00 0.00 0.00 88 1009.0
20240522114744 78 0 0.0 2.0 0.00 0.00 0.00 88 1009.0
20240522114243 78 191 0.0 3.0 0.00 0.00 0.00 88 1008.8
20240522113741 78 84 2.0 2.0 0.00 0.00 0.00 88 1008.7
20240522113240 78 111 0.0 3.0 0.00 0.00 0.00 88 1008.7
20240522112739 78 114 0.0 1.0 0.00 0.00 0.00 88 1008.8
20240522112237 78 0 0.0 2.0 0.00 0.00 0.00 88 1008.6
20240522111735 78 278 0.0 3.0 0.00 0.00 0.00 88 1008.8
20240522111234 78 78 0.0 2.0 0.00 0.00 0.00 88 1008.4
20240522110733 78 331 0.0 1.0 0.00 0.00 0.00 88 1008.7
20240522110231 78 270 0.0 2.0 0.00 0.00 0.00 88 1008.5
20240522105730 78 259 0.0 2.0 0.00 0.00 0.00 87 1008.7
20240522105229 78 275 0.0 2.0 0.00 0.00 0.00 87 1008.5
20240522104729 78 90 0.0 2.0 0.00 0.00 0.00 87 1008.5
20240522104229 78 90 0.0 4.0 0.00 0.00 0.00 87 1008.1
20240522103728 78 300 0.0 2.0 0.00 0.00 0.00 87 1008.5
20240522103226 78 77 0.0 2.0 0.00 0.00 0.00 87 1008.1
20240522102725 78 270 2.0 2.0 0.00 0.00 0.00 86 1008.5